Time,TemperatureF,DewpointF,PressureIn,WindDirection,WindDirectionDegrees,WindSpeedMPH,WindSpeedGustMPH,Humidity,HourlyPrecipIn,Conditions,Clouds,dailyrainin,SoftwareType,DateUTC
2013-03-08 00:02:00,31.0,25.0,30.25,ESE,102,1.0,3.0,79,0.00,,,0.01,,2013-03-08 05:02:00,
2013-03-08 00:12:00,31.0,25.0,30.25,ESE,102,1.0,3.0,79,0.00,,,0.01,,2013-03-08 05:12:00,
2013-03-08 00:22:00,31.0,25.0,30.25,East,101,0.0,3.0,77,0.00,,,0.01,,2013-03-08 05:22:00,
2013-03-08 00:33:00,30.0,23.0,30.24,East,101,0.0,2.0,76,0.00,,,0.01,,2013-03-08 05:33:00,
2013-03-08 00:42:00,30.0,23.0,30.24,East,101,0.0,2.0,76,0.00,,,0.01,,2013-03-08 05:42:00,
2013-03-08 00:52:00,31.0,24.0,30.25,ESE,107,0.0,2.0,75,0.00,,,0.01,,2013-03-08 05:52:00,
2013-03-08 01:01:00,30.0,23.0,30.25,ESE,108,0.0,3.0,76,0.00,,,0.01,,2013-03-08 06:01:00,
2013-03-08 01:11:00,30.0,23.0,30.25,ESE,108,0.0,3.0,76,0.00,,,0.01,,2013-03-08 06:11:00,
2013-03-08 01:22:00,30.0,23.0,30.26,ESE,105,1.0,4.0,74,0.00,,,0.01,,2013-03-08 06:22:00,
2013-03-08 01:32:00,30.0,23.0,30.26,East,100,0.0,3.0,74,0.00,,,0.01,,2013-03-08 06:32:00,
2013-03-08 01:42:00,30.0,23.0,30.26,East,100,0.0,3.0,74,0.00,,,0.01,,2013-03-08 06:42:00,
2013-03-08 01:52:00,30.0,23.0,30.26,East,99,1.0,3.0,74,0.00,,,0.01,,2013-03-08 06:52:00,
2013-03-08 02:01:00,30.0,23.0,30.26,East,100,1.0,2.0,75,0.00,,,0.01,,2013-03-08 07:01:00,
2013-03-08 02:11:00,30.0,23.0,30.26,East,100,1.0,2.0,75,0.00,,,0.01,,2013-03-08 07:11:00,
2013-03-08 02:22:00,30.0,23.0,30.26,ESE,102,0.0,2.0,76,0.00,,,0.01,,2013-03-08 07:22:00,
2013-03-08 02:32:00,30.0,23.0,30.26,ESE,102,0.0,3.0,76,0.00,,,0.01,,2013-03-08 07:32:00,
2013-03-08 02:42:00,30.0,23.0,30.26,ESE,102,0.0,3.0,76,0.00,,,0.01,,2013-03-08 07:42:00,
2013-03-08 02:52:00,30.0,23.0,30.26,ESE,107,2.0,4.0,76,0.00,,,0.01,,2013-03-08 07:52:00,
2013-03-08 03:01:00,30.0,23.0,30.26,ESE,106,1.0,3.0,76,0.00,,,0.01,,2013-03-08 08:01:00,
2013-03-08 03:11:00,30.0,23.0,30.26,ESE,106,1.0,3.0,76,0.00,,,0.01,,2013-03-08 08:11:00,
2013-03-08 03:22:00,30.0,24.0,30.26,ESE,109,1.0,4.0,77,0.00,,,0.01,,2013-03-08 08:22:00,
2013-03-08 03:32:00,30.0,24.0,30.26,ESE,103,0.0,5.0,77,0.00,,,0.01,,2013-03-08 08:32:00,
2013-03-08 03:42:00,30.0,24.0,30.26,ESE,103,0.0,5.0,77,0.00,,,0.01,,2013-03-08 08:42:00,
2013-03-08 03:52:00,30.0,24.0,30.26,ESE,103,0.0,3.0,77,0.00,,,0.01,,2013-03-08 08:52:00,
2013-03-08 04:03:00,30.0,24.0,30.27,ESE,105,2.0,4.0,77,0.00,,,0.01,,2013-03-08 09:03:00,
2013-03-08 04:11:00,30.0,24.0,30.27,ESE,105,2.0,4.0,77,0.00,,,0.01,,2013-03-08 09:11:00,
2013-03-08 04:22:00,30.0,24.0,30.27,ESE,114,0.0,4.0,77,0.00,,,0.01,,2013-03-08 09:22:00,
2013-03-08 04:32:00,30.0,24.0,30.27,ESE,114,0.0,2.0,77,0.00,,,0.01,,2013-03-08 09:32:00,
2013-03-08 04:42:00,30.0,24.0,30.27,ESE,114,0.0,2.0,77,0.00,,,0.01,,2013-03-08 09:42:00,
2013-03-08 04:52:00,30.0,24.0,30.28,ESE,114,0.0,2.0,77,0.00,,,0.01,,2013-03-08 09:52:00,
2013-03-08 05:01:00,30.0,24.0,30.28,ESE,114,1.0,4.0,77,0.00,,,0.01,,2013-03-08 10:01:00,
2013-03-08 05:11:00,30.0,24.0,30.28,ESE,114,1.0,4.0,77,0.00,,,0.01,,2013-03-08 10:11:00,
2013-03-08 05:21:00,30.0,24.0,30.29,ESE,112,1.0,3.0,77,0.00,,,0.01,,2013-03-08 10:21:00,
2013-03-08 05:32:00,30.0,23.0,30.29,ESE,112,0.0,3.0,76,0.00,,,0.01,,2013-03-08 10:32:00,
2013-03-08 05:42:00,30.0,23.0,30.29,ESE,112,0.0,3.0,76,0.00,,,0.01,,2013-03-08 10:42:00,
2013-03-08 05:52:00,30.0,24.0,30.30,ESE,112,0.0,2.0,77,0.00,,,0.01,,2013-03-08 10:52:00,
2013-03-08 06:01:00,30.0,24.0,30.30,ESE,111,0.0,4.0,77,0.00,,,0.01,,2013-03-08 11:01:00,
2013-03-08 06:11:00,30.0,24.0,30.30,ESE,111,0.0,4.0,77,0.00,,,0.01,,2013-03-08 11:11:00,
2013-03-08 06:22:00,31.0,25.0,30.30,ESE,111,2.0,4.0,77,0.00,,,0.01,,2013-03-08 11:22:00,
2013-03-08 06:32:00,31.0,25.0,30.31,ESE,111,0.0,2.0,77,0.00,,,0.01,,2013-03-08 11:32:00,
2013-03-08 06:42:00,31.0,25.0,30.31,ESE,111,0.0,2.0,77,0.00,,,0.01,,2013-03-08 11:42:00,
2013-03-08 06:52:00,31.0,25.0,30.31,ESE,111,2.0,3.0,77,0.00,,,0.01,,2013-03-08 11:52:00,
2013-03-08 07:02:00,31.0,25.0,30.31,ESE,111,2.0,3.0,77,0.00,,,0.01,,2013-03-08 12:02:00,
2013-03-08 07:11:00,31.0,25.0,30.31,ESE,111,2.0,3.0,77,0.00,,,0.01,,2013-03-08 12:11:00,
2013-03-08 07:22:00,31.0,25.0,30.32,ESE,113,2.0,4.0,77,0.00,,,0.01,,2013-03-08 12:22:00,
2013-03-08 07:32:00,31.0,25.0,30.32,ESE,114,3.0,5.0,77,0.00,,,0.01,,2013-03-08 12:32:00,
2013-03-08 07:43:00,31.0,25.0,30.32,ESE,114,3.0,5.0,77,0.00,,,0.01,,2013-03-08 12:43:00,
2013-03-08 07:53:00,32.0,26.0,30.32,ESE,109,2.0,4.0,77,0.00,,,0.01,,2013-03-08 12:53:00,
2013-03-08 08:01:00,32.0,26.0,30.32,ESE,123,4.0,6.0,77,0.00,,,0.01,,2013-03-08 13:01:00,
2013-03-08 08:11:00,32.0,26.0,30.32,ESE,123,4.0,6.0,77,0.00,,,0.01,,2013-03-08 13:11:00,
2013-03-08 08:22:00,32.0,25.0,30.33,ESE,118,2.0,6.0,76,0.00,,,0.01,,2013-03-08 13:22:00,
2013-03-08 08:32:00,33.0,26.0,30.33,ESE,113,4.0,5.0,75,0.00,,,0.01,,2013-03-08 13:32:00,
2013-03-08 08:42:00,33.0,26.0,30.33,ESE,113,4.0,5.0,75,0.00,,,0.01,,2013-03-08 13:42:00,
2013-03-08 08:52:00,33.0,25.0,30.34,SE,125,2.0,9.0,73,0.00,,,0.01,,2013-03-08 13:52:00,
2013-03-08 09:03:00,33.0,25.0,30.34,ESE,118,4.0,6.0,73,0.00,,,0.01,,2013-03-08 14:03:00,
2013-03-08 09:12:00,33.0,25.0,30.34,ESE,118,4.0,6.0,73,0.00,,,0.01,,2013-03-08 14:12:00,
2013-03-08 09:22:00,34.0,26.0,30.34,SE,125,4.0,9.0,71,0.00,,,0.01,,2013-03-08 14:22:00,
2013-03-08 09:32:00,34.0,25.0,30.34,SSE,150,4.0,9.0,70,0.00,,,0.01,,2013-03-08 14:32:00,
2013-03-08 09:42:00,34.0,25.0,30.34,SSE,150,4.0,9.0,70,0.00,,,0.01,,2013-03-08 14:42:00,
2013-03-08 09:53:00,35.0,25.0,30.34,SSE,148,3.0,7.0,66,0.00,,,0.01,,2013-03-08 14:53:00,
2013-03-08 10:03:00,35.0,25.0,30.34,ESE,123,2.0,10.0,67,0.00,,,0.01,,2013-03-08 15:03:00,
2013-03-08 10:12:00,37.0,26.0,30.35,SE,126,3.0,6.0,65,0.00,,,0.01,,2013-03-08 15:12:00,
2013-03-08 10:22:00,37.0,26.0,30.35,SE,126,3.0,6.0,65,0.00,,,0.01,,2013-03-08 15:22:00,
2013-03-08 10:32:00,36.0,25.0,30.35,ESE,114,6.0,10.0,63,0.00,,,0.01,,2013-03-08 15:32:00,
2013-03-08 10:42:00,36.0,25.0,30.35,ESE,114,6.0,10.0,63,0.00,,,0.01,,2013-03-08 15:42:00,
2013-03-08 10:53:00,36.0,26.0,30.35,ESE,123,3.0,8.0,66,0.00,,,0.00,,2013-03-08 15:53:00,
2013-03-08 11:01:00,36.0,25.0,30.35,ESE,113,4.0,9.0,65,0.00,,,0.00,,2013-03-08 16:01:00,
2013-03-08 11:11:00,36.0,25.0,30.35,ESE,113,4.0,9.0,65,0.00,,,0.00,,2013-03-08 16:11:00,
2013-03-08 11:22:00,36.0,25.0,30.35,SE,137,2.0,6.0,64,0.00,,,0.00,,2013-03-08 16:22:00,
2013-03-08 11:32:00,36.0,25.0,30.36,SE,140,2.0,6.0,64,0.00,,,0.00,,2013-03-08 16:32:00,
2013-03-08 11:42:00,36.0,25.0,30.36,SE,140,2.0,6.0,64,0.00,,,0.00,,2013-03-08 16:42:00,
2013-03-08 11:52:00,36.0,25.0,30.36,SE,128,1.0,4.0,63,0.00,,,0.00,,2013-03-08 16:52:00,
2013-03-08 12:03:00,36.0,24.0,30.36,SE,143,3.0,10.0,61,0.00,,,0.00,,2013-03-08 17:03:00,
2013-03-08 12:11:00,36.0,24.0,30.36,SE,143,3.0,10.0,61,0.00,,,0.00,,2013-03-08 17:11:00,
2013-03-08 12:21:00,36.0,24.0,30.36,ESE,123,5.0,11.0,62,0.00,,,0.00,,2013-03-08 17:21:00,
2013-03-08 12:32:00,36.0,25.0,30.36,SE,125,3.0,9.0,63,0.00,,,0.00,,2013-03-08 17:32:00,
2013-03-08 12:42:00,36.0,25.0,30.36,SE,125,3.0,9.0,63,0.00,,,0.00,,2013-03-08 17:42:00,
2013-03-08 12:52:00,36.0,24.0,30.36,ESE,122,5.0,12.0,62,0.00,,,0.00,,2013-03-08 17:52:00,
2013-03-08 13:02:00,36.0,24.0,30.36,ESE,113,4.0,10.0,61,0.00,,,0.00,,2013-03-08 18:02:00,
2013-03-08 13:11:00,36.0,24.0,30.36,ESE,113,4.0,10.0,61,0.00,,,0.00,,2013-03-08 18:11:00,
2013-03-08 13:22:00,37.0,24.0,30.36,SE,130,3.0,11.0,59,0.00,,,0.00,,2013-03-08 18:22:00,
2013-03-08 13:32:00,37.0,25.0,30.35,ESE,123,3.0,11.0,61,0.00,,,0.00,,2013-03-08 18:32:00,
2013-03-08 13:42:00,37.0,25.0,30.35,ESE,123,3.0,11.0,61,0.00,,,0.00,,2013-03-08 18:42:00,
2013-03-08 13:52:00,37.0,25.0,30.35,SE,140,1.0,9.0,61,0.00,,,0.00,,2013-03-08 18:52:00,
2013-03-08 14:01:00,37.0,24.0,30.34,SE,129,2.0,7.0,59,0.00,,,0.00,,2013-03-08 19:01:00,
2013-03-08 14:11:00,37.0,24.0,30.34,SE,129,2.0,7.0,59,0.00,,,0.00,,2013-03-08 19:11:00,
2013-03-08 14:22:00,38.0,25.0,30.34,ESE,123,3.0,6.0,59,0.00,,,0.00,,2013-03-08 19:22:00,
2013-03-08 14:32:00,37.0,24.0,30.34,SE,129,4.0,7.0,58,0.00,,,0.00,,2013-03-08 19:32:00,
2013-03-08 14:42:00,37.0,24.0,30.34,SE,129,4.0,7.0,58,0.00,,,0.00,,2013-03-08 19:42:00,
2013-03-08 14:52:00,38.0,25.0,30.34,ESE,111,4.0,7.0,58,0.00,,,0.00,,2013-03-08 19:52:00,
2013-03-08 15:01:00,38.0,25.0,30.34,ESE,116,1.0,6.0,59,0.00,,,0.00,,2013-03-08 20:01:00,
2013-03-08 15:11:00,38.0,25.0,30.34,ESE,116,1.0,6.0,59,0.00,,,0.00,,2013-03-08 20:11:00,
2013-03-08 15:22:00,38.0,25.0,30.35,ESE,114,1.0,9.0,58,0.00,,,0.00,,2013-03-08 20:22:00,
2013-03-08 15:32:00,39.0,25.0,30.35,ESE,109,1.0,6.0,58,0.00,,,0.00,,2013-03-08 20:32:00,
2013-03-08 15:42:00,39.0,25.0,30.35,ESE,109,1.0,6.0,58,0.00,,,0.00,,2013-03-08 20:42:00,
2013-03-08 15:53:00,38.0,24.0,30.35,ESE,117,3.0,6.0,57,0.00,,,0.00,,2013-03-08 20:53:00,
2013-03-08 16:02:00,39.0,25.0,30.35,ESE,121,5.0,7.0,57,0.00,,,0.00,,2013-03-08 21:02:00,
2013-03-08 16:11:00,39.0,25.0,30.35,ESE,121,5.0,7.0,57,0.00,,,0.00,,2013-03-08 21:11:00,
2013-03-08 16:22:00,38.0,24.0,30.35,SE,139,3.0,5.0,56,0.00,,,0.00,,2013-03-08 21:22:00,
2013-03-08 16:32:00,38.0,24.0,30.35,ESE,123,3.0,7.0,56,0.00,,,0.00,,2013-03-08 21:32:00,
2013-03-08 16:42:00,38.0,24.0,30.35,ESE,123,3.0,7.0,56,0.00,,,0.00,,2013-03-08 21:42:00,
2013-03-08 16:52:00,39.0,25.0,30.35,ESE,111,3.0,6.0,56,0.00,,,0.00,,2013-03-08 21:52:00,
2013-03-08 17:01:00,39.0,24.0,30.35,ESE,109,3.0,6.0,55,0.00,,,0.00,,2013-03-08 22:01:00,
2013-03-08 17:11:00,39.0,24.0,30.35,ESE,109,3.0,6.0,55,0.00,,,0.00,,2013-03-08 22:11:00,
2013-03-08 17:22:00,39.0,25.0,30.35,East,92,2.0,6.0,56,0.00,,,0.00,,2013-03-08 22:22:00,
2013-03-08 17:32:00,39.0,24.0,30.35,ESE,107,3.0,6.0,55,0.00,,,0.00,,2013-03-08 22:32:00,
2013-03-08 17:42:00,39.0,24.0,30.35,ESE,107,3.0,6.0,55,0.00,,,0.00,,2013-03-08 22:42:00,
2013-03-08 17:53:00,39.0,24.0,30.35,East,98,2.0,4.0,55,0.00,,,0.00,,2013-03-08 22:53:00,
2013-03-08 18:02:00,39.0,25.0,30.35,East,98,2.0,3.0,56,0.00,,,0.00,,2013-03-08 23:02:00,
2013-03-08 18:12:00,39.0,25.0,30.35,East,98,2.0,3.0,56,0.00,,,0.00,,2013-03-08 23:12:00,
2013-03-08 18:22:00,38.0,25.0,30.36,East,96,2.0,3.0,58,0.00,,,0.00,,2013-03-08 23:22:00,
2013-03-08 18:32:00,37.0,24.0,30.36,East,94,1.0,3.0,58,0.00,,,0.00,,2013-03-08 23:32:00,
2013-03-08 18:42:00,37.0,24.0,30.36,East,94,1.0,3.0,58,0.00,,,0.00,,2013-03-08 23:42:00,
2013-03-08 18:53:00,37.0,25.0,30.37,East,94,0.0,1.0,61,0.00,,,0.00,,2013-03-08 23:53:00,
2013-03-08 19:02:00,36.0,24.0,30.37,East,94,0.0,1.0,61,0.00,,,0.00,,2013-03-09 00:02:00,
2013-03-08 19:12:00,36.0,24.0,30.37,East,94,0.0,1.0,61,0.00,,,0.00,,2013-03-09 00:12:00,
2013-03-08 19:22:00,35.0,24.0,30.37,East,94,0.0,1.0,64,0.00,,,0.00,,2013-03-09 00:22:00,
2013-03-08 19:32:00,35.0,24.0,30.37,East,94,1.0,2.0,65,0.00,,,0.00,,2013-03-09 00:32:00,
2013-03-08 19:42:00,35.0,24.0,30.37,East,94,1.0,2.0,65,0.00,,,0.00,,2013-03-09 00:42:00,
2013-03-08 19:52:00,35.0,24.0,30.38,East,94,0.0,0.0,65,0.00,,,0.00,,2013-03-09 00:52:00,
2013-03-08 20:02:00,35.0,24.0,30.38,East,94,0.0,0.0,65,0.00,,,0.00,,2013-03-09 01:02:00,
2013-03-08 20:12:00,35.0,24.0,30.38,East,94,0.0,2.0,65,0.00,,,0.00,,2013-03-09 01:12:00,
2013-03-08 20:22:00,35.0,24.0,30.38,East,94,0.0,2.0,65,0.00,,,0.00,,2013-03-09 01:22:00,
2013-03-08 20:32:00,35.0,24.0,30.38,East,90,0.0,3.0,65,0.00,,,0.00,,2013-03-09 01:32:00,
2013-03-08 20:42:00,35.0,24.0,30.38,East,90,0.0,3.0,65,0.00,,,0.00,,2013-03-09 01:42:00,
2013-03-08 20:52:00,35.0,25.0,30.38,ENE,60,0.0,3.0,66,0.00,,,0.00,,2013-03-09 01:52:00,
2013-03-08 21:01:00,35.0,25.0,30.38,ENE,61,0.0,3.0,66,0.00,,,0.00,,2013-03-09 02:01:00,
2013-03-08 21:11:00,35.0,25.0,30.38,ENE,61,0.0,3.0,66,0.00,,,0.00,,2013-03-09 02:11:00,
2013-03-08 21:21:00,34.0,24.0,30.38,ENE,57,1.0,3.0,66,0.00,,,0.00,,2013-03-09 02:21:00,
2013-03-08 21:31:00,34.0,24.0,30.38,NE,56,1.0,3.0,67,0.00,,,0.00,,2013-03-09 02:31:00,
2013-03-08 21:41:00,34.0,25.0,30.38,NE,55,2.0,3.0,68,0.00,,,0.00,,2013-03-09 02:41:00,
2013-03-08 21:51:00,34.0,25.0,30.38,NE,55,2.0,3.0,68,0.00,,,0.00,,2013-03-09 02:51:00,
2013-03-08 22:01:00,34.0,25.0,30.38,ENE,64,2.0,3.0,69,0.00,,,0.00,,2013-03-09 03:01:00,
2013-03-08 22:11:00,34.0,25.0,30.38,ENE,64,2.0,3.0,69,0.00,,,0.00,,2013-03-09 03:11:00,
2013-03-08 22:22:00,34.0,25.0,30.38,ENE,65,0.0,2.0,69,0.00,,,0.00,,2013-03-09 03:22:00,
2013-03-08 22:31:00,33.0,24.0,30.38,ENE,57,1.0,3.0,70,0.00,,,0.00,,2013-03-09 03:31:00,
2013-03-08 22:41:00,33.0,24.0,30.38,ENE,57,1.0,3.0,70,0.00,,,0.00,,2013-03-09 03:41:00,
2013-03-08 22:52:00,33.0,25.0,30.38,NE,56,2.0,5.0,71,0.00,,,0.00,,2013-03-09 03:52:00,
2013-03-08 23:01:00,33.0,25.0,30.37,ENE,61,2.0,5.0,72,0.00,,,0.00,,2013-03-09 04:01:00,
2013-03-08 23:11:00,33.0,25.0,30.37,ENE,61,2.0,5.0,72,0.00,,,0.00,,2013-03-09 04:11:00,
2013-03-08 23:22:00,33.0,25.0,30.37,NE,56,1.0,4.0,72,0.00,,,0.00,,2013-03-09 04:22:00,
2013-03-08 23:32:00,32.0,24.0,30.37,ENE,62,0.0,4.0,73,0.00,,,0.00,,2013-03-09 04:32:00,
2013-03-08 23:42:00,32.0,24.0,30.37,ENE,62,0.0,4.0,73,0.00,,,0.00,,2013-03-09 04:42:00,
2013-03-08 23:52:00,32.0,25.0,30.37,East,82,2.0,5.0,74,0.00,,,0.00,,2013-03-09 04:52:00,